| time (UTC) | temp F | wind direction | speed MPH | gust MPH | rain 1hr in | rain 24hr in | rain mn in | humidity % | barometer mb |
| 20260506164003 | 63 | 205 | 4.0 | 10.0 | 0.00 | 0.07 | 0.01 | 57 | 1011.3 |
| 20260506163003 | 64 | 199 | 4.0 | 15.0 | 0.00 | 0.07 | 0.01 | 57 | 1011.2 |
| 20260506162003 | 66 | 212 | 3.0 | 12.0 | 0.00 | 0.07 | 0.01 | 54 | 1011.0 |
| 20260506161003 | 67 | 211 | 2.0 | 5.0 | 0.00 | 0.08 | 0.01 | 53 | 1011.2 |
| 20260506160003 | 66 | 190 | 4.0 | 12.0 | 0.00 | 0.08 | 0.01 | 54 | 1010.9 |
| 20260506155003 | 66 | 202 | 3.0 | 14.0 | 0.00 | 0.09 | 0.01 | 54 | 1011.3 |
| 20260506154003 | 66 | 180 | 3.0 | 11.0 | 0.00 | 0.09 | 0.01 | 52 | 1011.1 |
| 20260506153003 | 67 | 193 | 3.0 | 9.0 | 0.00 | 0.09 | 0.01 | 52 | 1011.1 |
| 20260506152003 | 66 | 179 | 3.0 | 10.0 | 0.00 | 0.09 | 0.01 | 53 | 1011.1 |
| 20260506151003 | 67 | 203 | 3.0 | 11.0 | 0.00 | 0.09 | 0.01 | 53 | 1011.0 |
| 20260506150004 | 65 | 217 | 2.0 | 8.0 | 0.00 | 0.09 | 0.01 | 55 | 1011.2 |
| 20260506145004 | 65 | 178 | 3.0 | 9.0 | 0.00 | 0.09 | 0.01 | 57 | 1011.0 |
| 20260506144003 | 67 | 205 | 2.0 | 7.0 | 0.00 | 0.09 | 0.01 | 53 | 1011.0 |
| 20260506143003 | 65 | 300 | 5.0 | 15.0 | 0.00 | 0.09 | 0.01 | 52 | 1011.2 |
| 20260505204003 | 49 | 0 | 0.0 | 0.0 | 0.00 | 0.28 | 0.28 | 92 | 1012.8 |
| 20260505203003 | 50 | 0 | 0.0 | 0.0 | 0.00 | 0.30 | 0.28 | 92 | 1012.4 |
| 20260505202003 | 50 | 0 | 0.0 | 0.0 | 0.00 | 0.30 | 0.28 | 91 | 1012.3 |
| 20260505201003 | 50 | 360 | 0.0 | 3.0 | 0.01 | 0.38 | 0.28 | 91 | 1012.0 |
| 20260505200003 | 51 | 360 | 1.0 | 4.0 | 0.01 | 0.39 | 0.28 | 90 | 1011.9 |
| 20260505195003 | 51 | 346 | 1.0 | 4.0 | 0.01 | 0.39 | 0.28 | 90 | 1011.6 |
| 20260505194003 | 51 | 360 | 1.0 | 5.0 | 0.01 | 0.39 | 0.28 | 90 | 1011.4 |
| 20260505193003 | 51 | 0 | 0.0 | 0.0 | 0.04 | 0.39 | 0.28 | 90 | 1011.4 |
| 20260505192003 | 51 | 90 | 0.0 | 1.0 | 0.04 | 0.39 | 0.28 | 89 | 1011.5 |
| 20260505191003 | 51 | 0 | 0.0 | 0.0 | 0.02 | 0.38 | 0.27 | 89 | 1011.6 |
| 20260505190004 | 52 | 0 | 0.0 | 0.0 | 0.02 | 0.38 | 0.27 | 88 | 1011.7 |
| 20260505185003 | 52 | 90 | 0.0 | 3.0 | 0.02 | 0.38 | 0.27 | 88 | 1011.4 |
| 20260505184003 | 52 | 90 | 0.0 | 3.0 | 0.02 | 0.38 | 0.27 | 87 | 1011.5 |
| 20260505183003 | 52 | 90 | 0.0 | 2.0 | 0.00 | 0.35 | 0.25 | 86 | 1011.5 |
| 20260505182003 | 52 | 57 | 1.0 | 4.0 | 0.01 | 0.35 | 0.25 | 85 | 1011.7 |
| 20260505181003 | 52 | 324 | 1.0 | 6.0 | 0.01 | 0.35 | 0.25 | 84 | 1011.7 |
| 20260505180003 | 53 | 296 | 3.0 | 8.0 | 0.01 | 0.35 | 0.25 | 82 | 1011.7 |
| 20260505175003 | 53 | 227 | 2.0 | 11.0 | 0.02 | 0.35 | 0.25 | 80 | 1010.9 |
| 20260505174003 | 53 | 195 | 4.0 | 14.0 | 0.02 | 0.35 | 0.25 | 81 | 1010.8 |
| 20260505173003 | 53 | 215 | 5.0 | 15.0 | 0.02 | 0.35 | 0.25 | 82 | 1010.8 |
| 20260505172003 | 54 | 260 | 2.0 | 15.0 | 0.01 | 0.34 | 0.24 | 82 | 1010.8 |
| 20260505171003 | 54 | 192 | 3.0 | 11.0 | 0.02 | 0.34 | 0.24 | 79 | 1010.5 |
| 20260505170003 | 55 | 158 | 3.0 | 6.0 | 0.02 | 0.34 | 0.24 | 76 | 1010.5 |